Date String (YYYY-MM-DD hh:mm:ss) UTC,Instrument flags,Ambient pressure (hPa),Sample flow (lpm),Bypass flow (lpm),Sample temperature (°C),Ambient temperature (°C),ASC tube jacket temperature (°C),LED temperature (°C),Box temperature (°C),Sample RH (%),Span deviation,Mass concentration (μg/m³),Mass concentration (μg/m³),Mass concentration (μg/m³)
DateTimeUTC,F1_M11,P_M11,Q1_M11,Q2_M11,T1_M11,T2_M11,T3_M11,T4_M11,T5_M11,U1_M11,ZSPAN_M11,X0_M11,X2_M11,X1_M11
2023-01-03 22:00:00,,0817.3,4.97,0.00,22.3,22.5,00.0,31.0,24.4,13.1,0000.0,0008.45,0005.91,0005.71
2023-01-03 22:01:00,,0817.3,4.97,0.00,22.5,23.0,00.0,31.0,24.6,12.9,0000.0,0008.52,0005.96,0005.75
2023-01-03 22:02:00,,0817.3,5.03,0.00,22.5,22.7,00.0,31.1,24.6,12.9,0000.0,0008.61,0006.01,0005.78
2023-01-03 22:03:00,,0817.3,4.97,0.00,22.5,22.4,00.0,31.2,24.5,12.8,0000.0,0008.62,0006.01,0005.78
2023-01-03 22:04:00,,0817.3,5.04,0.00,22.5,22.1,00.0,31.2,24.4,12.8,0000.0,0008.64,0006.01,0005.78
2023-01-03 22:05:00,,0817.2,5.03,0.00,22.6,21.9,00.0,31.2,24.4,12.8,0000.0,0008.61,0005.99,0005.76
2023-01-03 22:06:00,,0817.2,4.95,0.00,22.6,21.7,00.0,31.3,24.4,12.7,0000.0,0008.51,0005.95,0005.74
2023-01-03 22:07:00,,0817.2,5.03,0.00,22.5,21.5,00.0,31.3,24.4,12.7,0000.0,0008.44,0005.90,0005.71
2023-01-03 22:08:00,,0817.2,5.01,0.00,22.5,21.4,00.0,31.3,24.3,12.7,0000.0,0008.30,0005.82,0005.65
2023-01-03 22:09:00,,0817.3,4.96,0.00,22.5,21.3,00.0,31.3,24.3,12.7,0000.0,0008.22,0005.76,0005.61
2023-01-03 22:10:00,,0817.3,5.02,0.00,22.5,21.3,00.0,31.3,24.3,12.7,0000.0,0008.13,0005.71,0005.56
2023-01-03 22:11:00,,0817.3,5.01,0.00,22.5,21.3,00.0,31.3,24.3,12.6,0000.0,0008.08,0005.67,0005.54
2023-01-03 22:12:00,,0817.4,4.98,0.00,22.5,21.4,00.0,31.3,24.3,12.7,0000.0,0008.04,0005.65,0005.52
2023-01-03 22:13:00,,0817.3,4.97,0.00,22.6,21.4,00.0,31.3,24.3,13.0,0000.0,0007.99,0005.62,0005.48
2023-01-03 22:14:00,,0817.3,5.02,0.00,22.6,21.4,00.0,31.3,24.4,13.0,0000.0,0007.98,0005.59,0005.46
2023-01-03 22:15:00,,0817.3,5.02,0.00,22.6,21.4,00.0,31.3,24.4,13.0,0000.0,0007.97,0005.57,0005.44
2023-01-03 22:16:00,,0817.2,4.99,0.00,22.6,21.4,00.0,31.3,24.4,12.8,0000.0,0007.96,0005.57,0005.44
2023-01-03 22:17:00,,0817.2,4.98,0.00,22.6,21.4,00.0,31.3,24.4,12.7,0000.0,0007.98,0005.59,0005.46
2023-01-03 22:18:00,,0817.2,5.00,0.00,22.6,21.3,00.0,31.3,24.4,12.7,0000.0,0008.04,0005.64,0005.51
2023-01-03 22:19:00,,0817.2,5.03,0.00,22.5,21.2,00.0,31.3,24.3,12.7,0000.0,0008.12,0005.72,0005.58
2023-01-03 22:20:00,,0817.1,5.01,0.00,22.5,21.2,00.0,31.4,24.3,12.7,0000.0,0008.20,0005.79,0005.65
2023-01-03 22:21:00,,0817.1,4.97,0.00,22.5,21.2,00.0,31.3,24.3,12.7,0000.0,0008.27,0005.84,0005.70
2023-01-03 22:22:00,,0817.1,4.98,0.00,22.5,21.3,00.0,31.3,24.4,12.7,0000.0,0008.41,0005.89,0005.74
2023-01-03 22:23:00,,0817.2,5.01,0.00,22.6,21.3,00.0,31.4,24.4,12.7,0000.0,0008.49,0005.92,0005.78
2023-01-03 22:24:00,,0817.2,5.01,0.00,22.6,21.3,00.0,31.4,24.4,12.7,0000.0,0008.57,0005.98,0005.82
2023-01-03 22:25:00,,0817.2,4.98,0.00,22.6,21.3,00.0,31.4,24.4,12.7,0000.0,0008.57,0006.03,0005.88
2023-01-03 22:26:00,,0817.3,4.96,0.00,22.5,21.2,00.0,31.4,24.3,12.7,0000.0,0008.66,0006.10,0005.95
2023-01-03 22:27:00,,0817.3,5.00,0.00,22.5,21.2,00.0,31.4,24.3,12.7,0000.0,0008.75,0006.17,0006.01
2023-01-03 22:28:00,,0817.2,5.03,0.00,22.5,21.2,00.0,31.4,24.3,12.7,0000.0,0008.79,0006.20,0006.03
2023-01-03 22:29:00,,0817.3,5.00,0.00,22.5,21.2,00.0,31.4,24.3,12.7,0000.0,0008.77,0006.20,0006.03
2023-01-03 22:30:00,,0817.3,4.99,0.00,22.5,21.2,00.0,31.4,24.3,12.7,0000.0,0008.80,0006.22,0006.05
2023-01-03 22:31:00,,0817.3,5.01,0.00,22.5,21.2,00.0,31.4,24.3,12.7,0000.0,0008.84,0006.25,0006.05
2023-01-03 22:32:00,,0817.3,5.03,0.00,22.5,21.1,00.0,31.4,24.3,12.7,0000.0,0008.96,0006.32,0006.07
2023-01-03 22:33:00,,0817.2,5.01,0.00,22.5,21.0,00.0,31.4,24.2,12.7,0000.0,0008.93,0006.36,0006.11
2023-01-03 22:34:00,,0817.2,5.00,0.00,22.5,20.9,00.0,31.3,24.2,12.7,0000.0,0008.90,0006.38,0006.14
2023-01-03 22:35:00,,0817.2,5.00,0.00,22.4,20.9,00.0,31.3,24.1,12.7,0000.0,0008.84,0006.38,0006.16
2023-01-03 22:36:00,,0817.2,4.98,0.00,22.4,20.9,00.0,31.3,24.1,12.7,0000.0,0009.18,0006.42,0006.19
2023-01-03 22:37:00,,0817.2,5.00,0.00,22.4,20.8,00.0,31.3,24.1,12.8,0000.0,0009.17,0006.41,0006.18
2023-01-03 22:38:00,,0817.2,5.02,0.00,22.3,20.7,00.0,31.3,24.0,12.8,0000.0,0009.17,0006.41,0006.17
2023-01-03 22:39:00,,0817.2,5.02,0.00,22.3,20.6,00.0,31.3,24.0,12.8,0000.0,0009.19,0006.42,0006.17
2023-01-03 22:40:00,,0817.2,4.98,0.00,22.3,20.6,00.0,31.3,23.9,12.8,0000.0,0009.22,0006.43,0006.17
2023-01-03 22:41:00,,0817.2,4.98,0.00,22.2,20.5,00.0,31.2,23.9,12.8,0000.0,0009.28,0006.40,0006.14
2023-01-03 22:42:00,,0817.2,5.04,0.00,22.2,20.4,00.0,31.2,23.8,12.8,0000.0,0009.25,0006.39,0006.13
2023-01-03 22:43:00,,0817.2,5.04,0.00,22.1,20.3,00.0,31.2,23.7,12.8,0000.0,0009.13,0006.32,0006.12
2023-01-03 22:44:00,,0817.2,4.97,0.00,22.1,20.2,00.0,31.2,23.6,12.9,0000.0,0009.09,0006.29,0006.10
2023-01-03 22:45:00,,0817.2,4.97,0.00,22.0,20.1,00.0,31.1,23.5,12.9,0000.0,0009.06,0006.25,0006.06
2023-01-03 22:46:00,,0817.1,4.95,0.00,21.9,19.9,00.0,31.1,23.5,13.0,0000.0,0009.10,0006.22,0006.02
2023-01-03 22:47:00,,0817.1,5.03,0.00,21.9,19.9,00.0,31.1,23.4,13.1,0000.0,0008.92,0006.19,0005.97
2023-01-03 22:48:00,,0817.0,5.03,0.00,21.9,20.7,00.0,31.0,23.7,13.0,0000.0,0008.78,0006.15,0005.94
2023-01-03 22:49:00,,0817.1,4.98,0.00,22.1,21.8,00.0,30.9,24.0,13.0,0000.0,0008.74,0006.12,0005.93
2023-01-03 22:50:00,,0817.1,5.01,0.00,22.2,22.4,00.0,31.0,24.2,12.9,0000.0,0008.78,0006.09,0005.90
2023-01-03 22:51:00,,0817.1,5.01,0.00,22.2,21.9,00.0,31.0,24.1,12.8,0000.0,0008.78,0006.08,0005.88
2023-01-03 22:52:00,,0817.2,5.01,0.00,22.2,21.4,00.0,31.0,24.0,12.9,0000.0,0008.66,0006.03,0005.85
2023-01-03 22:53:00,,0817.2,4.98,0.00,22.2,21.1,00.0,31.1,23.8,12.9,0000.0,0008.81,0006.00,0005.81
2023-01-03 22:54:00,,0817.2,4.98,0.00,22.1,20.9,00.0,31.1,23.8,12.9,0000.0,0008.93,0006.02,0005.80
2023-01-03 22:55:00,,0817.2,4.97,0.00,22.1,20.8,00.0,31.1,23.8,12.9,0000.0,0008.96,0006.01,0005.78
2023-01-03 22:56:00,,0817.3,5.01,0.00,22.1,20.8,00.0,31.1,23.8,12.9,0000.0,0009.21,0006.00,0005.77
2023-01-03 22:57:00,,0817.4,5.03,0.00,22.1,20.8,00.0,31.0,23.9,12.9,0000.0,0009.64,0006.01,0005.77
2023-01-03 22:58:00,,0817.4,4.99,0.00,22.2,20.9,00.0,31.0,23.9,12.8,0000.0,0009.64,0006.02,0005.77
2023-01-03 22:59:00,,0817.4,4.97,0.00,22.2,21.0,00.0,31.1,24.0,12.8,0000.0,0009.58,0005.99,0005.76
